User: anonymous   Login
Location: Unspecified
(0.0000°N, 0.0000°E)
Time: 11:55:02
(UTC+00:00)
Language:

Milstar DFS 2 - Orbit

View from above orbital plane
View from above orbital plane
View from above satellite
View from above satellite

Ground track
Ground track

The orbit data is extracted from the following two-line orbital elements,

1 23712U 95060A   17287.26511608 0.00000000  00000-0  00000-0 0    02
2 23712  12.5558  28.5418 0002828 141.0812 218.7465  1.00270000    01
Epoch (UTC): 14 October 2017 06:21:46
Eccentricity: 0.0002828
inclination: 12.5558°
perigee height: 35775 km
apogee height: 35798 km
right ascension of ascending node: 28.5418°
argument of perigee: 141.0812°
revolutions per day: 1.00270000
mean anomaly at epoch: 218.7465°
orbit number at epoch: 0

The dashed part of the orbit path shows where the satellite is in the earth's shadow,  

DLR